Weather History for KCCY - May, 2012

Change the Weather History Date:

Friday, May 18, 2012

  Actual Average (KMCW) Record (KMCW)
Temperature  
Mean Temperature 73 °F 59 °F  
Max Temperature 89 °F 71 °F 97 °F (1934)
Min Temperature 57 °F 48 °F 31 °F (2002)
Degree Days  
Heating Degree Days 0 7  
Month to date heating degree days 168  
Since 1 July heating degree days 7568  
Cooling Degree Days 8 1  
Month to date cooling degree days 10  
Year to date cooling degree days 15  
Growing Degree Days 23 (Base 50)    
Moisture  
Dew Point 44 °F    
Average Humidity 36    
Maximum Humidity 59    
Minimum Humidity 17    
Precipitation  
Precipitation 0.00 in 0.16 in 1.21 in (1921)
Month to date precipitation 2.66  
Year to date precipitation 10.46  
Snow  
Snow 0.00 in 0.00 in - ()
Month to date snowfall 0.1  
Since 1 July snowfall 41.3  
Snow Depth -    
Sea Level Pressure  
Sea Level Pressure 29.89 in    
Wind  
Wind Speed 15 mph (SSE)    
Max Wind Speed 24 mph    
Max Gust Speed 31 mph    
Visibility 10 miles    
Events      
T = Trace of Precipitation, MM = Missing Value Source: NWS Daily Summary

Daily Weather History Graph

Daily Weather History Graph

Search for Another Location

Airport or City:

Trip Planner

Search our weather history database for the weather conditions in past years. The results will help you decide how hot, cold, wet, or windy it might be!

Date:

Astronomy

May. 18, 2012 Rise Set
Actual Time 5:43 AM CDT 8:30 PM CDT
Civil Twilight 5:10 AM CDT 9:04 PM CDT
Nautical Twilight 4:28 AM CDT 9:46 PM CDT
Astronomical Twilight 3:40 AM CDT 10:34 PM CDT
Moon 4:15 AM CDT (5/18) 6:38 PM CDT (5/18)
Length of Visible Light 15h 53m
Length of Day
14h 47m
Waning Crescent, 5% of the Moon is Illuminated
May 18
Waning Crescent
May 20
New
May 28
First Quarter
Jun 4
Full
Jun 11
Last Quarter

Hourly Weather History & Observations

Time (CDT) Temp. Dew Point Humidity Pressure Visibility Wind Dir Wind Speed Gust Speed Precip Events Conditions
12:15 AM 62.6 °F 39.2 °F 42% 29.92 in 10.0 mi South 12.7 mph - N/A   Clear
12:35 AM 62.6 °F 39.2 °F 42% 29.93 in 10.0 mi South 11.5 mph - N/A   Clear
12:55 AM 62.6 °F 39.2 °F 42% 29.92 in 10.0 mi SSE 11.5 mph - N/A   Clear
1:15 AM 62.6 °F 39.2 °F 42% 29.92 in 10.0 mi SSE 12.7 mph - N/A   Clear
1:35 AM 62.6 °F 39.2 °F 42% 29.92 in 10.0 mi SSE 13.8 mph - N/A   Clear
2:15 AM 60.8 °F 39.2 °F 45% 29.92 in 10.0 mi South 12.7 mph - N/A   Clear
2:35 AM 60.8 °F 39.2 °F 45% 29.92 in 10.0 mi South 12.7 mph - N/A   Clear
2:55 AM 60.8 °F 39.2 °F 45% 29.92 in 10.0 mi SSE 12.7 mph - N/A   Clear
3:15 AM 60.8 °F 39.2 °F 45% 29.92 in 10.0 mi SSE 13.8 mph - N/A   Clear
3:35 AM 59.0 °F 39.2 °F 48% 29.92 in 10.0 mi SSE 13.8 mph - N/A   Clear
3:55 AM 60.8 °F 39.2 °F 45% 29.92 in 10.0 mi SSE 15.0 mph - N/A   Clear
4:15 AM 60.8 °F 39.2 °F 45% 29.92 in 10.0 mi SSE 13.8 mph 20.7 mph N/A   Clear
4:35 AM 60.8 °F 41.0 °F 48% 29.92 in 10.0 mi South 15.0 mph - N/A   Clear
4:55 AM 59.0 °F 41.0 °F 51% 29.92 in 10.0 mi South 12.7 mph - N/A   Clear
5:15 AM 57.2 °F 41.0 °F 55% 29.93 in 10.0 mi South 10.4 mph - N/A   Clear
5:35 AM 57.2 °F 41.0 °F 55% 29.92 in 10.0 mi South 10.4 mph - N/A   Clear
5:55 AM 57.2 °F 42.8 °F 59% 29.93 in 10.0 mi South 10.4 mph - N/A   Clear
6:15 AM 57.2 °F 42.8 °F 59% 29.93 in 7.0 mi SSE 9.2 mph - N/A   Clear
6:35 AM 57.2 °F 42.8 °F 59% 29.93 in 10.0 mi SSE 11.5 mph - N/A   Clear
6:55 AM 60.8 °F 42.8 °F 52% 29.93 in 10.0 mi SSE 13.8 mph - N/A   Clear
7:15 AM 62.6 °F 42.8 °F 48% 29.93 in 10.0 mi South 13.8 mph - N/A   Clear
7:35 AM 64.4 °F 42.8 °F 45% 29.93 in 10.0 mi South 13.8 mph - N/A   Clear
7:55 AM 66.2 °F 44.6 °F 46% 29.93 in 10.0 mi South 16.1 mph 20.7 mph N/A   Clear
8:15 AM 68.0 °F 42.8 °F 40% 29.92 in 10.0 mi South 17.3 mph - N/A   Clear
8:35 AM 69.8 °F 42.8 °F 38% 29.92 in 10.0 mi South 18.4 mph 25.3 mph N/A   Clear
8:55 AM 71.6 °F 44.6 °F 38% 29.92 in 10.0 mi South 16.1 mph - N/A   Clear
9:15 AM 73.4 °F 42.8 °F 33% 29.92 in 10.0 mi South 15.0 mph 21.9 mph N/A   Clear
9:35 AM 75.2 °F 44.6 °F 34% 29.91 in 10.0 mi South 18.4 mph - N/A   Clear
9:55 AM 77.0 °F 44.6 °F 32% 29.91 in 10.0 mi South 16.1 mph 21.9 mph N/A   Clear
10:15 AM 78.8 °F 44.6 °F 30% 29.90 in 10.0 mi South 19.6 mph 24.2 mph N/A   Clear
10:35 AM 80.6 °F 44.6 °F 28% 29.90 in 10.0 mi South 19.6 mph - N/A   Clear
10:55 AM 82.4 °F 44.6 °F 26% 29.90 in 10.0 mi South 20.7 mph 25.3 mph N/A   Clear
11:15 AM 84.2 °F 46.4 °F 27% 29.89 in 10.0 mi South 20.7 mph 27.6 mph N/A   Clear
11:35 AM 84.2 °F 46.4 °F 27% 29.89 in 10.0 mi South 24.2 mph 28.8 mph N/A   Clear
11:55 AM 86.0 °F 46.4 °F 25% 29.89 in 10.0 mi South 21.9 mph 28.8 mph N/A   Clear
12:15 PM 86.0 °F 44.6 °F 23% 29.88 in 10.0 mi South 23.0 mph 28.8 mph N/A   Clear
12:35 PM 87.8 °F 42.8 °F 21% 29.88 in 10.0 mi South 24.2 mph 28.8 mph N/A   Clear
12:55 PM 87.8 °F 44.6 °F 22% 29.87 in 10.0 mi South 17.3 mph 28.8 mph N/A   Clear
1:15 PM 89.6 °F 42.8 °F 20% 29.87 in 10.0 mi South 19.6 mph 29.9 mph N/A   Clear
1:35 PM 89.6 °F 41.0 °F 18% 29.86 in 10.0 mi South 23.0 mph 28.8 mph N/A   Clear
1:55 PM 89.6 °F 42.8 °F 20% 29.86 in 10.0 mi South 23.0 mph 28.8 mph N/A   Clear
2:15 PM 89.6 °F 42.8 °F 20% 29.86 in 10.0 mi South 24.2 mph 29.9 mph N/A   Clear
2:35 PM 89.6 °F 39.2 °F 17% 29.86 in 10.0 mi South 23.0 mph 29.9 mph N/A   Clear
2:55 PM 89.6 °F 39.2 °F 17% 29.86 in 10.0 mi SSE 19.6 mph 28.8 mph N/A   Clear
3:15 PM 89.6 °F 42.8 °F 20% 29.85 in 10.0 mi SSE 18.4 mph 25.3 mph N/A   Clear
3:35 PM 89.6 °F 42.8 °F 20% 29.85 in 10.0 mi South 24.2 mph 29.9 mph N/A   Clear
3:55 PM 89.6 °F 44.6 °F 21% 29.84 in 10.0 mi SSE 21.9 mph 28.8 mph N/A   Clear
4:35 PM 87.8 °F 46.4 °F 24% 29.83 in 10.0 mi SSE 21.9 mph 31.1 mph N/A   Clear
4:55 PM 87.8 °F 46.4 °F 24% 29.82 in 10.0 mi SSE 19.6 mph 25.3 mph N/A   Clear
5:15 PM 87.8 °F 46.4 °F 24% 29.82 in 10.0 mi SSE 17.3 mph 23.0 mph N/A   Clear
5:35 PM 86.0 °F 46.4 °F 25% 29.82 in 10.0 mi SSE 20.7 mph 25.3 mph N/A   Clear
5:55 PM 87.8 °F 44.6 °F 22% 29.82 in 10.0 mi SSE 23.0 mph 26.5 mph N/A   Clear
6:15 PM 86.0 °F 46.4 °F 25% 29.83 in 10.0 mi South 19.6 mph 27.6 mph N/A   Clear
6:35 PM 84.2 °F 46.4 °F 27% 29.83 in 10.0 mi SSE 19.6 mph - N/A   Clear
6:55 PM 86.0 °F 46.4 °F 25% 29.83 in 10.0 mi SSE 20.7 mph 26.5 mph N/A   Clear
7:15 PM 84.2 °F 44.6 °F 25% 29.83 in 10.0 mi SSE 23.0 mph 27.6 mph N/A   Clear
7:35 PM 82.4 °F 46.4 °F 28% 29.83 in 10.0 mi SSE 18.4 mph 23.0 mph N/A   Clear
7:55 PM 80.6 °F 48.2 °F 32% 29.84 in 10.0 mi SSE 15.0 mph 21.9 mph N/A   Clear
8:15 PM 78.8 °F 48.2 °F 34% 29.84 in 10.0 mi SSE 12.7 mph - N/A   Clear
8:35 PM 78.8 °F 50.0 °F 36% 29.85 in 10.0 mi SSE 11.5 mph - N/A   Clear
8:55 PM 77.0 °F 50.0 °F 39% 29.85 in 10.0 mi SSE 12.7 mph 17.3 mph N/A   Clear
9:15 PM 77.0 °F 48.2 °F 36% 29.85 in 10.0 mi SSE 12.7 mph - N/A   Clear
9:35 PM 77.0 °F 48.2 °F 36% 29.86 in 10.0 mi SSE 12.7 mph - N/A   Clear
9:55 PM 75.2 °F 48.2 °F 38% 29.87 in 10.0 mi SSE 10.4 mph - N/A   Clear
10:15 PM 71.6 °F 50.0 °F 46% 29.87 in 10.0 mi SE 9.2 mph - N/A   Clear
10:35 PM 71.6 °F 48.2 °F 43% 29.88 in 10.0 mi SE 10.4 mph - N/A   Clear
10:55 PM 71.6 °F 48.2 °F 43% 29.88 in 10.0 mi SE 11.5 mph - N/A   Clear
11:15 PM 71.6 °F 48.2 °F 43% 29.88 in 10.0 mi SSE 12.7 mph - N/A   Clear
11:35 PM 69.8 °F 50.0 °F 49% 29.88 in 10.0 mi SSE 12.7 mph - N/A   Clear
11:55 PM 69.8 °F 51.8 °F 53% 29.88 in 10.0 mi SSE 12.7 mph - N/A   Clear